Belden, MS

9:11 PM CDT on July 27, 2016 (GMT -0500)
Tupelo Regional

Weather History for KTUP - June, 2014

Change the Weather History Date:

Thursday, June 19, 2014

  Actual Average Record
Temperature  
Mean Temperature 83 °F 79 °F  
Max Temperature 94 °F 90 °F 105 °F (1936)
Min Temperature 71 °F 69 °F 57 °F (1961)
Degree Days  
Heating Degree Days 0 0  
Month to date heating degree days 0 0  
Since 1 June heating degree days 0 0  
Since 1 July heating degree days 3465 2956  
Cooling Degree Days 18 14  
Month to date cooling degree days 247 229  
Year to date cooling degree days 521 506  
Since 1 June cooling degree days 247 229  
Growing Degree Days 32 (Base 50)    
Moisture  
Dew Point 69 °F    
Average Humidity 69    
Maximum Humidity 90    
Minimum Humidity 47    
Precipitation  
Precipitation 0.00 in 0.15 in 1.36 in (2007)
Month to date precipitation 5.31 2.87  
Year to date precipitation 25.48 27.47  
Snow  
Snow 0.00 in 0.00 in - ()
Month to date snowfall 0.0 0.0  
Since 1 June snowfall 0.0 0.0  
Since 1 July snowfall 0.5 2.1  
Snow Depth 0.00 in    
Sea Level Pressure  
Sea Level Pressure 30.09 in    
Wind  
Wind Speed 3 mph (SW)    
Max Wind Speed 10 mph    
Max Gust Speed 13 mph    
Visibility 10 miles    
Events      
T = Trace of Precipitation, MM = Missing Value Source: NWS Daily Summary

Daily Weather History Graph

Daily Weather History Graph

Search for Another Location

Airport or City:

Trip Planner

Search our weather history database for the weather conditions in past years. The results will help you decide how hot, cold, wet, or windy it might be!

Date:

Astronomy

Jun. 19, 2014 Rise Set
Actual Time 5:43 AM CDT 8:09 PM CDT
Civil Twilight 5:13 AM CDT 8:39 PM CDT
Nautical Twilight 4:37 AM CDT 9:15 PM CDT
Astronomical Twilight 3:57 AM CDT 9:55 PM CDT
Moon 12:30 AM CDT (6/19) 12:55 PM CDT (6/19)
Length of Visible Light 15h 25m
Length of Day
14h 26m
Waning Gibbous, 51% of the Moon is Illuminated
Jun 19
Waning Gibbous
Jun 19
Last Quarter
Jun 27
New
Jul 5
First Quarter
Jul 12
Full

Hourly Weather History & Observations

Time (CDT) Temp. Heat Index Dew Point Humidity Pressure Visibility Wind Dir Wind Speed Gust Speed Precip Events Conditions
12:53 AM 73.9 °F - 68.0 °F 82% 30.06 in 10.0 mi South 3.5 mph - N/A   Clear
1:53 AM 73.4 °F - 68.0 °F 83% 30.08 in 10.0 mi SSW 3.5 mph - N/A   Clear
2:53 AM 73.0 °F - 66.9 °F 81% 30.05 in 9.0 mi Calm Calm - N/A   Clear
3:53 AM 72.0 °F - 68.0 °F 87% 30.06 in 10.0 mi Calm Calm - N/A   Clear
4:53 AM 71.6 °F - 68.0 °F 88% 30.09 in 10.0 mi SSE 4.6 mph - N/A   Clear
5:53 AM 71.1 °F - 68.0 °F 90% 30.09 in 10.0 mi South 4.6 mph - N/A   Clear
6:53 AM 73.0 °F - 69.1 °F 87% 30.11 in 10.0 mi South 4.6 mph - N/A   Clear
7:53 AM 77.0 °F - 69.1 °F 76% 30.12 in 10.0 mi SE 3.5 mph - N/A   Clear
8:53 AM 80.1 °F 82.9 °F 69.1 °F 69% 30.14 in 10.0 mi South 3.5 mph - N/A   Clear
9:53 AM 82.9 °F 87.0 °F 70.0 °F 65% 30.14 in 10.0 mi West 3.5 mph - N/A   Clear
10:53 AM 86.0 °F 91.5 °F 71.1 °F 61% 30.15 in 10.0 mi Variable 3.5 mph - N/A   Clear
11:53 AM 89.1 °F 95.0 °F 71.1 °F 55% 30.14 in 10.0 mi Variable 3.5 mph - N/A   Scattered Clouds
12:53 PM 88.0 °F 92.1 °F 69.1 °F 53% 30.12 in 10.0 mi SSE 3.5 mph - N/A   Overcast
1:53 PM 91.0 °F 96.6 °F 70.0 °F 50% 30.10 in 10.0 mi Variable 4.6 mph - N/A   Mostly Cloudy
2:53 PM 91.9 °F 96.9 °F 69.1 °F 47% 30.08 in 10.0 mi NNW 3.5 mph - N/A   Clear
3:53 PM 91.9 °F 96.9 °F 69.1 °F 47% 30.07 in 10.0 mi West 5.8 mph - N/A   Mostly Cloudy
4:53 PM 91.9 °F 95.9 °F 68.0 °F 45% 30.06 in 10.0 mi NW 5.8 mph - N/A   Clear
5:53 PM 91.0 °F 95.6 °F 69.1 °F 48% 30.04 in 10.0 mi NW 4.6 mph - N/A   Clear
6:53 PM 90.0 °F 95.4 °F 70.0 °F 52% 30.04 in 10.0 mi West 5.8 mph - N/A   Clear
7:53 PM 84.0 °F 88.4 °F 70.0 °F 63% 30.05 in 10.0 mi West 4.6 mph - N/A   Clear
8:53 PM 82.0 °F 86.3 °F 71.1 °F 69% 30.06 in 10.0 mi Calm Calm - N/A   Clear
9:53 PM 80.1 °F 83.2 °F 70.0 °F 71% 30.07 in 10.0 mi WSW 3.5 mph - N/A   Clear
10:53 PM 75.9 °F - 70.0 °F 82% 30.07 in 10.0 mi WSW 3.5 mph - N/A   Clear
11:53 PM 75.9 °F - 70.0 °F 82% 30.07 in 10.0 mi Calm Calm - N/A   Clear